[[{"header":{"parameterUnit":"m.s-1","parameterCategory":1,"la1":30.2991,"la2":30.254,"lo1":-89.0895,"lo2":-89.0444,"dy":0.0017,"dx":0.0017,"nx":28,"ny":28,"refTime":"2025-04-28T09:00:00:Z","depth":0,"parameterNumber":2,"parameterNumberName":"U-component_of_WINDS"},"data":[0,0,0,0,0,0,0,0,0,0,0,0,0,0,0,0,0,0,0,0,0,0,0,0,0,0,0,0,0,0,0,0,0,0,0,0,0,0,0,0,0,0,0,0,0,0,0,0,0,0,0,0,0,0,0,0,0,0,1.9089,1.9089,0,1.9083,1.9082,1.9082,1.9035,1.9033,1.9032,1.9031,1.9024,1.9025,1.9026,0,0,0,0,0,0,0,0,0,0,0,0,0,1.9058,1.9059,1.9089,1.9089,1.9089,1.9083,1.9082,1.9082,1.9035,1.9033,1.9032,1.9031,1.9024,1.9025,1.9026,0,0,0,0,0,0,0,0,0,0,0,0,0,1.9064,1.9059,1.9089,1.9064,1.9062,1.9083,1.9082,1.9082,1.9035,1.9033,1.9032,1.903,1.9024,1.9025,1.9026,1.907,0,0,1.9031,1.9031,0,0,0,0,0,0,0,0,1.9063,1.9065,1.9068,1.9066,1.9063,1.9058,1.9069,1.9078,1.9036,1.9045,1.9031,1.9029,1.9037,1.9037,1.904,1.907,1.907,1.9031,1.9032,1.9032,1.9033,0,0,0,0,0,0,0,1.9063,1.9065,1.9086,1.9068,1.9065,1.9053,1.9052,1.9071,1.9051,1.9044,1.9041,1.9041,1.9035,1.9039,1.9039,1.907,1.9031,1.9032,1.9033,1.9033,1.9133,1.9135,0,0,0,0,0,0,1.9066,1.9065,1.9086,1.9086,1.9059,1.9055,1.9054,1.9061,1.9051,1.9047,1.9042,1.9038,1.9037,1.9038,1.9039,1.9087,1.9032,1.9034,1.9034,1.9131,1.9133,1.9135,0,0,0,0,0,0,1.9066,1.9069,1.9087,1.9075,1.9076,1.9057,1.9066,1.9062,1.9065,1.9049,1.9045,1.9049,1.9036,1.9037,1.9062,1.9086,1.9034,1.9035,1.9129,1.9132,1.9134,1.9185,0,0,0,0,0,0,1.9065,1.9069,1.9086,1.9075,1.9077,1.9111,1.9068,1.9063,1.9068,1.9063,1.9055,1.9052,1.9034,1.906,1.9064,1.9087,1.9036,1.9127,1.913,1.9133,1.9181,1.9189,1.9196,0,0,0,0,0,1.9064,1.9101,1.9087,1.9089,1.9097,1.9112,1.9113,1.9092,1.907,1.9086,1.9076,1.9052,1.9084,1.9063,1.9067,1.9091,1.9125,1.9129,1.9133,1.9178,1.9188,1.9196,0,0,0,0,0,0,1.9114,1.9099,1.9083,1.9117,1.9116,1.9104,1.9124,1.9104,1.9109,1.9104,1.9079,1.9078,1.9106,1.9102,1.9079,1.9131,1.91,1.9105,1.9133,1.9142,1.915,1.9149,1.9038,0,0,0,0,0,1.9129,1.9143,1.9129,1.916,1.9161,1.9143,1.9148,1.9133,1.913,1.913,1.9121,1.912,1.9129,1.9136,1.9144,1.9181,1.9177,1.9199,1.9207,1.9213,1.9217,1.9233,1.9242,1.9149,1.9149,1.9148,0,0,1.916,1.9154,1.9164,1.917,1.9167,1.9181,1.9142,1.9159,1.9169,1.9132,1.9155,1.9149,1.9146,1.9176,1.9189,1.9173,1.9242,1.9218,1.9223,1.9223,1.9238,1.9247,1.9255,1.9151,1.9151,1.915,0,0,1.9223,1.9221,1.9245,1.9243,1.924,1.9227,1.9233,1.9224,1.9218,1.9241,1.9213,1.9224,1.9242,1.924,1.9241,1.9303,1.928,1.9307,1.9344,1.9361,1.9368,1.9375,1.9394,1.9401,1.9311,1.9311,1.9311,0,1.9262,1.9281,1.926,1.9278,1.9281,1.9249,1.9273,1.9272,1.9272,1.9274,1.9256,1.9276,1.9272,1.93,1.9315,1.9319,1.9323,1.9306,1.9369,1.9375,1.9381,1.9399,1.9407,1.9314,1.9314,1.9313,1.9313,0,1.9328,1.9342,1.9362,1.9362,1.9367,1.9388,1.9369,1.9377,1.9362,1.9351,1.9373,1.9367,1.9372,1.9379,1.9364,1.9405,1.9394,1.9374,1.9341,1.9393,1.9409,1.9416,1.9318,1.9317,1.9316,1.9316,0,0,1.942,1.9407,1.9415,1.9413,1.9407,1.9417,1.9437,1.9441,1.9447,1.9449,1.9462,1.9478,1.9458,1.946,1.9444,1.946,1.9505,1.9436,1.9436,1.9447,1.9547,1.956,1.9569,1.9492,1.9493,1.9494,1.9546,0,1.9478,1.9509,1.949,1.9524,1.9536,1.9506,1.9522,1.952,1.9511,1.9519,1.9509,1.9519,1.9493,1.9494,1.9508,1.9497,1.9525,1.9493,1.9502,1.9503,1.9501,1.9578,1.9592,1.9642,1.9553,1.9554,1.9555,0,1.9549,1.9552,1.9587,1.9576,1.958,1.9596,1.9597,1.9606,1.9603,1.9595,1.9597,1.9577,1.9594,1.9565,1.9587,1.9566,1.9569,1.9565,1.9566,1.9563,1.953,1.9574,1.9657,1.9664,1.9565,1.9564,1.9564,0,1.9609,1.9622,1.9644,1.9644,1.9633,1.9644,1.964,1.9635,1.9638,1.9641,1.9642,1.9647,1.9649,1.9652,1.9634,1.9615,1.9658,1.9628,1.965,1.9651,1.9658,1.9658,1.974,1.9666,1.9666,1.9666,1.9666,0,1.9673,1.9695,1.967,1.9683,1.9706,1.9685,1.9708,1.9701,1.9696,1.9707,1.9683,1.9693,1.967,1.9678,1.9665,1.9684,1.9686,1.9679,1.9674,1.9679,1.9679,1.9678,1.9673,1.9668,1.9667,1.9667,1.9667,0,1.9743,1.9727,1.9748,1.9737,1.9734,1.9751,1.9741,1.9752,1.9742,1.9755,1.9757,1.9741,1.9748,1.9732,1.9738,1.9729,1.9755,1.9747,1.9756,1.9752,1.9774,1.9771,1.9856,1.9865,1.9789,1.979,1.979,0,1.9783,1.9799,1.9788,1.9793,1.9791,1.98,1.9803,1.9783,1.9787,1.9784,1.9795,1.9801,1.9804,1.9819,1.9807,1.9811,1.9801,1.983,1.9801,1.9804,1.9797,1.9795,1.9795,1.9835,1.9836,1.9837,1.9837,0,1.9855,1.9847,1.9852,1.9855,1.9859,1.9861,1.986,1.9866,1.9844,1.9851,1.9858,1.9861,1.9866,1.9872,1.9873,1.9869,1.9849,1.9847,1.9852,1.9855,1.9859,1.9854,1.9768,1.9845,1.9844,1.9843,1.9843,1.9843,1.9909,1.9921,1.9915,1.9921,1.9919,1.9919,1.9928,1.9919,1.9925,1.9927,1.9915,1.9925,1.992,1.992,1.9917,1.9924,1.9911,1.9919,1.992,1.9922,1.9924,1.986,1.9925,1.9925,1.9925,1.9924,1.9924,0,1.9978,1.9972,1.9979,1.9978,1.9983,1.9965,1.9963,1.9968,1.9977,1.9974,1.9978,1.9986,1.9991,1.998,1.9983,1.9991,1.9982,1.9992,1.999,1.9988,1.9937,1.9931,1.9999,1.9999,1.9999,1.9999,1.9999,1.9999,2.0013,2.0031,2.0022,2.0038,2.0033,2.0041,2.0042,2.0041,2.0038,2.0048,2.0052,2.0045,2.0038,2.0041,2.0044,2.0041,2.0042,2.0055,2.0048,2.0,1.9992,1.9985,1.9979,2.0056,2.0056,2.0098,2.0098,2.0099]},{"header":{"parameterUnit":"m.s-1","parameterCategory":1,"la1":30.2991,"la2":30.254,"lo1":-89.0895,"lo2":-89.0444,"dy":0.0017,"dx":0.0017,"nx":28,"ny":28,"refTime":"2025-04-28T09:00:00:Z","depth":0,"parameterNumber":3,"parameterNumberName":"V-component_of_WINDS"},"data":[0,0,0,0,0,0,0,0,0,0,0,0,0,0,0,0,0,0,0,0,0,0,0,0,0,0,0,0,0,0,0,0,0,0,0,0,0,0,0,0,0,0,0,0,0,0,0,0,0,0,0,0,0,0,0,0,0,0,2.6076,2.6078,0,2.6225,2.6227,2.6228,2.6247,2.6246,2.6245,2.6243,2.6394,2.6399,2.6404,0,0,0,0,0,0,0,0,0,0,0,0,0,2.5806,2.5811,2.6076,2.6078,2.608,2.6225,2.6227,2.6229,2.6248,2.6246,2.6244,2.6243,2.6392,2.6398,2.6405,0,0,0,0,0,0,0,0,0,0,0,0,0,2.5936,2.5812,2.6076,2.6107,2.6111,2.6224,2.6227,2.6229,2.6248,2.6246,2.6244,2.6242,2.639,2.6398,2.6406,2.6498,0,0,2.643,2.6434,0,0,0,0,0,0,0,0,2.5928,2.5946,2.61,2.6105,2.611,2.6215,2.6187,2.6319,2.6249,2.6196,2.6243,2.6241,2.6336,2.6348,2.6381,2.6505,2.6511,2.6431,2.6436,2.6439,2.6441,0,0,0,0,0,0,0,2.5919,2.5939,2.6135,2.6103,2.6108,2.6112,2.6128,2.6212,2.6276,2.62,2.6202,2.622,2.6338,2.6373,2.6385,2.6514,2.6431,2.6438,2.6443,2.6446,2.6718,2.672,0,0,0,0,0,0,2.5905,2.5932,2.613,2.6139,2.6012,2.6119,2.6137,2.6184,2.6275,2.6287,2.6221,2.622,2.6361,2.6375,2.639,2.6502,2.6439,2.6447,2.6451,2.6716,2.6718,2.6721,0,0,0,0,0,0,2.5899,2.5922,2.6124,2.6036,2.6062,2.6126,2.6178,2.6188,2.6223,2.6291,2.6302,2.6245,2.636,2.6379,2.647,2.6508,2.645,2.6458,2.6713,2.6716,2.672,2.6729,0,0,0,0,0,0,2.5891,2.592,2.5957,2.6037,2.6067,2.6203,2.6181,2.6192,2.6237,2.6236,2.6317,2.6328,2.6359,2.6458,2.6478,2.6518,2.6464,2.671,2.6714,2.6719,2.6725,2.6732,2.6738,0,0,0,0,0,2.5881,2.5953,2.5958,2.5982,2.6114,2.6205,2.6222,2.6258,2.624,2.6276,2.632,2.6325,2.6501,2.6468,2.649,2.6533,2.6707,2.6713,2.6718,2.6722,2.6731,2.6738,0,0,0,0,0,0,2.5876,2.5965,2.5971,2.6071,2.6131,2.6208,2.6256,2.6266,2.6331,2.6328,2.6368,2.6386,2.6475,2.6513,2.6475,2.6625,2.6602,2.6612,2.6598,2.6606,2.6612,2.6601,2.647,0,0,0,0,0,2.5887,2.5954,2.6028,2.6109,2.6138,2.6192,2.6233,2.6255,2.6318,2.6343,2.6393,2.6453,2.6522,2.6566,2.6633,2.6731,2.6748,2.6771,2.6777,2.6782,2.679,2.6843,2.6854,2.6739,2.6739,2.6739,0,0,2.5909,2.5966,2.6006,2.6109,2.6158,2.6226,2.6213,2.6286,2.6336,2.6354,2.6443,2.6482,2.6552,2.6646,2.669,2.6681,2.6826,2.6789,2.6792,2.6798,2.6849,2.686,2.687,2.6743,2.6742,2.6741,0,0,2.5984,2.6035,2.6107,2.6156,2.6229,2.6264,2.6281,2.6357,2.6384,2.6474,2.6488,2.6548,2.6666,2.6714,2.6754,2.6845,2.6852,2.6866,2.6899,2.695,2.6959,2.6967,2.6998,2.7009,2.6874,2.6874,2.6874,0,2.6003,2.6107,2.6143,2.6215,2.6259,2.6278,2.6351,2.6396,2.6487,2.6517,2.6504,2.6651,2.6699,2.6805,2.6827,2.6859,2.6879,2.6857,2.6955,2.6963,2.6971,2.7001,2.7013,2.6875,2.6875,2.6875,2.6875,0,2.6125,2.6196,2.6246,2.6333,2.6383,2.6455,2.6501,2.6547,2.6564,2.6599,2.669,2.6748,2.6826,2.6853,2.6871,2.696,2.6952,2.6947,2.6924,2.6983,2.7012,2.7024,2.6877,2.6876,2.6876,2.6876,0,0,2.6202,2.6307,2.6325,2.6364,2.6445,2.6501,2.6573,2.665,2.6687,2.6749,2.6809,2.6907,2.6903,2.6948,2.6971,2.7015,2.7082,2.7005,2.7007,2.7016,2.7182,2.7185,2.7198,2.7087,2.7089,2.7091,2.7176,0,2.6286,2.6416,2.6449,2.6559,2.6624,2.6642,2.6704,2.676,2.6795,2.6855,2.6893,2.6961,2.695,2.6978,2.7022,2.7064,2.7116,2.7059,2.7142,2.7145,2.7123,2.7213,2.7217,2.7294,2.7188,2.7189,2.7191,0,2.6402,2.6465,2.6581,2.6653,2.6681,2.6737,2.6809,2.6866,2.6929,2.6951,2.7001,2.7019,2.7093,2.7066,2.7168,2.7128,2.7164,2.7189,2.7193,2.7202,2.7171,2.7223,2.732,2.7331,2.7209,2.7208,2.7207,0,2.6445,2.656,2.6643,2.6676,2.6762,2.68,2.6837,2.6898,2.6942,2.7004,2.7032,2.7102,2.714,2.7193,2.7229,2.7207,2.7327,2.7304,2.7346,2.7345,2.7371,2.7368,2.7473,2.7395,2.7395,2.7395,2.7394,0,2.6534,2.6604,2.6664,2.6715,2.6793,2.683,2.6907,2.6944,2.6998,2.7056,2.7075,2.7129,2.7174,2.7233,2.7262,2.734,2.7358,2.7376,2.7383,2.7374,2.7372,2.7398,2.7393,2.7398,2.7397,2.7396,2.7396,0,2.6596,2.6638,2.6731,2.6804,2.6823,2.6878,2.6939,2.6989,2.7024,2.7097,2.7116,2.717,2.7241,2.7282,2.7372,2.739,2.7477,2.7482,2.7456,2.7459,2.7498,2.7494,2.7623,2.7641,2.7552,2.7552,2.7553,0,2.665,2.6704,2.6782,2.6823,2.686,2.6925,2.6969,2.7007,2.7052,2.7127,2.7167,2.7239,2.7299,2.741,2.7457,2.7525,2.7531,2.7571,2.7541,2.753,2.753,2.7526,2.7531,2.7576,2.7577,2.7578,2.7578,0,2.6741,2.6759,2.6822,2.6892,2.6943,2.7,2.7056,2.7088,2.7135,2.7184,2.7257,2.7303,2.7393,2.7464,2.7535,2.7572,2.7583,2.7587,2.76,2.7592,2.7574,2.7583,2.7469,2.7584,2.7584,2.7583,2.7583,2.7583,2.68,2.6848,2.691,2.6979,2.7025,2.7077,2.7127,2.7167,2.7228,2.7305,2.7324,2.7399,2.7459,2.7556,2.7595,2.7653,2.7646,2.7666,2.7671,2.7675,2.7675,2.7565,2.7667,2.7667,2.7666,2.7666,2.7666,0,2.6891,2.6932,2.6995,2.7072,2.7126,2.7131,2.7193,2.7237,2.7304,2.7359,2.7416,2.7499,2.7567,2.7618,2.7687,2.7724,2.7731,2.7741,2.7738,2.7746,2.7678,2.7659,2.7735,2.7735,2.7735,2.7735,2.7735,2.7735,2.6945,2.7026,2.7051,2.7155,2.7194,2.7269,2.7304,2.7351,2.7395,2.7486,2.7542,2.7575,2.7628,2.7701,2.7763,2.7776,2.78,2.781,2.7824,2.7759,2.7751,2.7744,2.7727,2.7815,2.7815,2.7887,2.7887,2.7888]}]]